Date,TemperatureHighF,TemperatureAvgF,TemperatureLowF,DewpointHighF,DewpointAvgF,DewpointLowF,HumidityHigh,HumidityAvg,HumidityLow,PressureMaxIn,PressureMinIn,WindSpeedMaxMPH,WindSpeedAvgMPH,GustSpeedMaxMPH,PrecipitationSumIn
2013-1-1,47,43,38,46,39,31,95,86,76,30.23,29.99,13,5,13,0.01
2013-1-2,41,38,33,31,30,27,83,73,67,30.29,30.20,8,2,11,0.00
2013-1-3,48,41,27,33,30,24,88,66,49,30.41,30.28,19,4,19,0.00
2013-1-4,54,46,40,38,34,31,76,63,47,30.47,30.32,10,3,10,0.00
2013-1-5,54,45,38,43,38,33,92,79,62,30.33,30.17,12,3,12,0.01
2013-1-6,58,43,30,35,30,26,93,65,32,30.34,30.23,15,3,15,0.01
2013-1-7,58,48,30,39,34,22,78,59,44,30.28,30.06,10,4,10,0.00
2013-1-8,50,47,45,49,43,35,95,85,63,30.05,29.89,14,5,14,0.81
2013-1-9,58,54,50,56,53,48,96,95,93,30.05,29.88,28,10,28,2.06
2013-1-10,61,56,51,58,51,45,96,83,64,29.95,29.88,16,7,16,0.08
2013-1-11,72,60,48,61,52,44,89,77,54,29.93,29.73,18,8,18,0.00
2013-1-12,75,57,38,69,53,33,94,86,68,29.88,29.61,20,7,20,0.07
2013-1-13,44,37,32,33,28,23,82,70,53,30.20,29.88,15,7,15,0.02
2013-1-14,44,36,29,29,26,21,79,68,55,30.27,30.14,20,7,20,0.00
2013-1-15,36,34,31,32,30,24,94,85,66,30.17,30.08,15,3,15,0.12
2013-1-16,48,37,28,28,24,21,81,61,41,30.25,30.12,12,3,12,0.05
2013-1-17,60,46,35,38,31,25,73,59,40,30.44,30.19,10,3,10,0.00
2013-1-18,62,50,32,41,36,26,81,59,43,30.46,30.22,13,4,13,0.00
2013-1-19,63,51,38,49,42,34,90,72,56,30.24,30.11,16,5,16,0.00
2013-1-20,70,54,38,51,43,35,91,70,42,30.18,30.02,11,3,11,0.00
2013-1-21,57,47,38,42,37,32,93,69,50,30.23,30.07,16,4,16,0.00
2013-1-22,67,51,36,50,41,29,80,69,54,30.27,30.13,10,3,10,0.00
2013-1-23,72,60,49,58,53,45,89,76,60,30.25,30.08,19,8,19,0.00
2013-1-24,78,64,56,63,58,53,94,80,57,30.15,29.98,15,7,15,0.00
2013-1-25,62,52,49,58,47,42,93,83,75,30.14,29.99,12,5,14,0.00
2013-1-26,53,50,46,50,47,41,95,90,75,30.16,30.06,8,4,8,0.01
2013-1-27,76,64,51,64,59,50,96,84,61,30.06,29.89,20,7,20,0.00
2013-1-28,78,73,67,67,64,63,88,75,62,29.97,29.82,19,10,20,0.00
2013-1-29,78,68,54,67,61,44,85,79,65,29.83,29.42,25,11,25,0.15
2013-1-30,53,47,40,38,29,22,74,51,31,30.11,29.67,27,9,27,0.00
2013-1-31,68,50,36,33,27,23,61,44,21,30.24,30.05,26,7,26,0.00
2013-2-1,63,47,31,40,32,21,66,56,41,30.33,30.11,24,7,26,0.00
2013-2-2,67,55,44,51,40,32,85,59,32,30.27,30.10,16,4,16,0.00
2013-2-3,72,56,40,44,35,30,71,49,25,30.27,29.94,9,3,9,0.00
2013-2-4,72,61,52,59,49,33,90,68,41,29.94,29.75,13,6,13,0.10
2013-2-5,75,63,56,65,58,54,96,87,61,29.96,29.83,12,4,12,0.00
2013-2-6,74,64,55,63,59,54,95,85,65,29.97,29.82,13,6,13,0.00
2013-2-7,80,64,56,62,55,44,93,75,34,30.03,29.76,21,7,21,0.00
2013-2-8,65,54,44,49,38,30,77,57,29,30.19,30.03,17,5,17,0.00
2013-2-9,61,51,47,59,47,41,94,87,72,30.09,29.71,14,7,14,0.03
2013-2-10,68,60,51,64,44,33,95,59,31,29.96,29.60,36,6,36,0.35
2013-2-11,52,50,47,44,41,37,85,73,60,30.11,29.94,17,6,17,0.09
2013-2-12,53,48,44,49,45,40,94,89,83,29.97,29.79,19,5,19,0.69
2013-2-13,56,46,40,42,38,35,87,74,53,30.12,29.96,18,4,18,0.00
2013-2-14,69,52,38,47,40,34,87,64,39,30.07,29.95,9,4,9,0.00
2013-2-15,50,47,38,40,32,23,73,56,38,30.33,30.03,24,7,24,0.00
2013-2-16,58,43,30,34,28,22,73,56,38,30.37,30.12,12,2,12,0.00
2013-2-17,70,54,40,47,36,29,74,53,30,30.13,29.88,22,9,22,0.00
2013-2-18,79,63,52,59,47,33,82,59,25,30.07,29.71,29,12,29,0.00
2013-2-19,61,52,40,36,30,21,69,45,23,30.27,30.07,16,6,16,0.00
2013-2-20,51,47,43,41,38,36,85,73,58,30.11,29.72,19,8,19,0.10
2013-2-21,69,53,47,54,44,30,92,72,24,29.86,29.56,18,8,18,0.10
2013-2-22,49,42,35,39,30,24,82,64,45,30.08,29.86,16,5,16,0.00
2013-2-23,56,43,31,34,29,25,78,59,40,30.03,29.87,11,3,11,0.00
2013-2-24,71,54,33,48,39,28,86,60,35,29.88,29.56,15,6,15,0.00
2013-2-25,62,54,42,56,41,31,85,63,36,29.62,29.43,30,12,30,0.13
2013-2-26,58,48,41,36,33,30,71,57,39,29.86,29.63,28,9,28,0.02
2013-2-27,57,45,35,36,29,20,84,56,25,30.17,29.83,20,6,20,0.00
2013-2-28,58,45,35,31,27,24,76,51,29,30.24,30.11,15,4,15,0.00
2013-3-1,56,44,33,34,28,22,73,55,37,30.24,30.12,15,3,15,0.00
2013-3-2,54,42,30,30,25,19,78,52,31,30.37,30.18,17,4,17,0.00
2013-3-3,71,54,36,45,33,23,67,47,31,30.18,29.78,21,9,21,0.00
2013-3-4,81,67,55,56,50,44,76,57,34,29.78,29.58,24,13,24,0.00
2013-3-5,65,52,41,54,28,18,69,42,23,30.31,29.68,23,8,23,0.00
2013-3-6,63,47,34,29,24,21,63,42,22,30.40,30.15,16,4,16,0.00
2013-3-7,72,56,38,40,32,21,62,43,23,30.20,30.05,16,5,16,0.00
2013-3-8,64,58,52,56,50,37,81,75,54,30.14,29.96,11,5,11,0.00
2013-3-9,71,66,60,64,60,55,88,81,74,29.96,29.60,27,9,27,0.11
2013-3-10,65,54,41,62,42,31,92,65,48,30.04,29.67,25,8,25,0.49
2013-3-11,59,43,32,31,27,17,86,57,22,30.07,29.95,16,4,16,0.00
2013-3-12,69,49,40,36,30,25,62,47,28,30.24,29.98,11,3,11,0.00
2013-3-13,73,59,42,43,38,30,72,48,29,30.38,30.25,11,3,11,0.00
2013-3-14,76,62,47,50,44,35,68,52,38,30.31,30.13,11,6,11,0.00
2013-3-15,80,70,55,57,50,45,84,51,34,30.12,29.86,20,10,20,0.00
2013-3-16,81,69,58,62,56,51,87,64,44,29.86,29.66,21,11,21,0.00
2013-3-17,80,70,62,65,60,52,84,70,51,29.75,29.61,20,6,20,0.00
2013-3-18,73,65,56,65,53,41,92,67,46,29.95,29.62,21,7,21,0.00
2013-3-19,70,57,42,48,42,36,84,58,41,30.04,29.91,19,6,19,0.00
2013-3-20,67,58,45,41,35,28,72,44,24,30.24,29.99,18,6,18,0.00
2013-3-21,73,60,50,58,45,32,79,57,42,29.99,29.53,22,8,22,0.00
2013-3-22,70,58,47,63,52,45,94,82,65,29.80,29.53,17,7,17,0.00
2013-3-23,64,53,47,54,48,45,94,86,69,29.84,29.63,19,5,19,0.05
2013-3-24,53,46,39,49,32,23,89,58,39,30.12,29.75,24,9,24,0.00
2013-3-25,54,43,29,27,22,16,70,45,23,30.34,30.12,19,4,19,0.00
2013-3-26,59,45,30,30,24,17,64,44,28,30.45,30.24,10,2,10,0.00
2013-3-27,72,56,38,43,35,24,61,47,32,30.27,30.05,18,7,18,0.00
2013-3-28,73,63,50,58,52,42,83,68,58,30.17,30.04,14,7,14,0.00
2013-3-29,79,68,58,62,58,54,87,70,53,30.14,29.98,15,7,15,0.00
2013-3-30,80,68,56,65,61,53,93,77,60,30.07,29.85,24,6,24,0.59
2013-3-31,74,68,61,64,59,53,90,75,54,29.94,29.77,17,7,17,0.04
2013-4-1,83,68,52,59,54,49,89,65,39,30.02,29.88,10,3,10,0.00
2013-4-2,77,66,53,65,60,44,90,79,65,29.97,29.81,23,6,23,0.46
2013-4-3,53,49,46,49,46,43,94,90,72,30.09,29.86,24,8,24,1.27
2013-4-4,51,47,43,44,42,39,93,83,71,30.14,30.04,13,4,13,0.01
2013-4-5,72,56,40,54,46,37,91,71,46,30.19,29.99,8,2,8,0.00
2013-4-6,77,65,54,61,54,48,85,69,54,29.99,29.80,21,8,21,0.00
2013-4-7,77,68,61,64,60,56,86,75,63,29.87,29.71,17,8,17,0.00
2013-4-8,79,71,65,67,63,58,83,75,66,29.73,29.63,19,9,19,0.00
2013-4-9,86,75,67,68,66,62,89,73,53,29.68,29.59,25,8,25,0.00
2013-4-10,73,50,40,68,46,37,93,86,75,29.91,29.65,17,6,17,0.64
2013-4-11,63,50,39,42,37,31,85,64,40,29.92,29.76,10,3,10,0.02
2013-4-12,80,62,45,56,47,39,81,61,33,29.95,29.81,8,2,8,0.00
2013-4-13,80,67,53,57,51,44,76,58,40,29.95,29.74,12,4,12,0.00
2013-4-14,82,70,56,67,60,50,84,71,58,29.75,29.53,15,7,16,0.00
2013-4-15,87,77,68,71,67,64,91,74,54,29.73,29.58,19,8,19,0.00
2013-4-16,92,79,71,71,68,64,84,70,49,29.86,29.73,15,7,15,0.00
2013-4-17,89,79,72,72,69,66,89,74,55,29.84,29.61,19,8,19,0.00
2013-4-18,76,57,46,71,49,36,92,75,53,30.10,29.54,23,8,23,1.23
2013-4-19,62,50,37,36,32,25,86,53,25,30.23,30.09,14,4,14,0.00
2013-4-20,74,60,44,47,38,33,71,48,27,30.16,29.97,15,5,15,0.00
2013-4-21,78,62,45,56,48,38,85,62,43,30.15,30.02,11,4,11,0.00
2013-4-22,82,68,53,62,56,46,81,65,50,30.06,29.81,14,6,14,0.00
2013-4-23,73,57,45,66,52,39,90,81,73,30.11,29.77,16,6,16,0.01
2013-4-24,61,50,41,44,38,34,87,65,46,30.25,30.10,18,6,18,0.01
2013-4-25,76,62,49,51,45,38,72,57,37,30.28,30.10,10,4,10,0.00
2013-4-26,80,69,59,68,57,45,79,66,55,30.12,29.93,11,4,11,0.00
2013-4-27,76,70,58,67,61,53,90,73,55,30.04,29.93,12,5,12,0.01
2013-4-28,87,67,51,70,59,48,94,77,54,30.01,29.81,8,2,8,0.00
2013-4-29,89,76,61,71,63,58,89,68,46,29.87,29.74,11,4,11,0.00
2013-4-30,73,65,61,64,59,56,91,81,70,29.79,29.70,9,3,9,0.00
2013-5-1,86,73,63,71,65,60,91,77,54,29.91,29.73,9,3,9,0.00
2013-5-2,68,55,45,62,49,37,91,81,69,30.26,29.87,20,7,20,0.02
2013-5-3,66,53,40,38,32,26,78,50,24,30.24,29.97,23,6,23,0.00
2013-5-4,74,60,44,40,34,29,61,41,21,29.97,29.82,20,5,20,0.00
2013-5-5,68,54,42,48,41,35,83,63,42,30.09,29.95,16,4,16,0.00
2013-5-6,83,65,48,56,50,42,83,61,39,30.07,29.94,9,2,9,0.00
2013-5-7,91,75,58,61,56,50,78,54,32,30.02,29.88,7,2,7,0.00
2013-5-8,90,76,61,63,57,53,76,55,36,29.96,29.82,16,5,16,0.00
2013-5-9,73,69,66,68,62,57,91,81,61,29.93,29.78,13,4,13,0.50
2013-5-10,80,72,65,68,64,62,94,79,58,29.98,29.81,12,3,12,0.00
2013-5-11,79,70,60,63,54,47,87,61,34,30.10,29.95,20,5,20,0.00
2013-5-12,80,67,54,53,46,38,81,50,25,30.20,30.08,11,3,11,0.00
2013-5-13,90,73,54,59,50,42,70,47,28,30.19,30.07,12,4,12,0.00
2013-5-14,90,76,62,64,58,51,83,57,34,30.12,29.94,15,6,15,0.00
2013-5-15,78,73,69,70,68,64,92,84,72,30.00,29.72,18,7,18,0.85
2013-5-16,85,72,63,73,67,60,93,83,66,29.83,29.70,21,6,21,0.54
2013-5-17,94,82,72,77,72,68,91,75,55,29.81,29.73,14,5,14,0.00
2013-5-18,95,83,72,76,71,67,87,70,51,29.86,29.71,15,8,15,0.00
2013-5-19,93,82,70,74,69,65,88,68,50,29.81,29.65,21,9,21,0.00
2013-5-20,94,82,74,74,71,60,84,69,51,29.79,29.60,34,10,34,0.00
2013-5-21,90,74,63,74,67,60,92,80,58,29.82,29.63,23,8,23,0.00
2013-5-22,88,70,55,69,61,53,93,76,47,29.89,29.78,9,2,9,0.00
2013-5-23,90,78,69,74,70,64,92,77,56,29.99,29.82,13,4,13,0.00
2013-5-24,90,80,68,77,71,63,91,76,59,30.12,29.95,17,4,17,0.00
2013-5-25,87,74,67,75,69,64,94,84,63,30.09,29.98,18,4,18,0.04
2013-5-26,91,80,72,75,71,68,92,74,52,30.03,29.88,16,6,16,0.00
2013-5-27,91,81,72,73,70,67,88,70,51,29.94,29.75,15,7,15,0.00
2013-5-28,93,83,72,71,69,67,85,64,47,29.85,29.71,20,8,20,0.00
2013-5-29,87,78,73,73,70,68,89,79,63,29.77,29.66,22,8,22,0.07
2013-5-30,91,80,74,76,72,70,88,78,58,29.76,29.65,15,7,15,0.00
2013-5-31,94,87,77,76,74,72,86,66,54,29.79,29.63,14,8,14,0.00
2013-6-1,96,87,76,78,74,69,84,67,53,29.87,29.69,13,7,13,0.00
2013-6-2,84,76,68,67,58,51,84,56,35,30.01,29.88,13,5,13,0.00
2013-6-3,95,85,60,67,63,54,88,49,34,29.94,29.79,8,3,8,0.00
2013-6-4,96,81,69,73,67,63,82,64,43,29.92,29.73,13,5,13,0.00
2013-6-5,96,87,72,73,69,67,84,57,45,29.86,29.68,14,3,14,0.00
2013-6-6,79,73,69,71,67,64,94,82,66,29.88,29.73,26,4,26,0.25
2013-6-7,84,73,63,65,60,54,90,68,37,29.95,29.82,13,2,13,0.00
2013-6-8,94,78,62,68,62,56,83,60,36,29.89,29.74,10,3,10,0.00
2013-6-9,90,79,69,72,68,63,90,70,50,29.88,29.79,16,4,18,0.00
2013-6-10,102,85,70,75,69,64,88,62,35,29.91,29.83,10,3,10,0.00
2013-6-11,99,87,75,76,72,67,87,63,43,29.98,29.86,13,6,13,0.00
2013-6-12,99,87,74,76,72,68,89,65,42,30.01,29.87,14,5,14,0.00
2013-6-13,102,89,74,77,72,68,84,59,39,30.00,29.83,12,4,12,0.00
2013-6-14,103,85,74,75,70,66,77,62,41,29.93,29.82,7,2,7,0.00
2013-6-15,101,89,75,78,73,68,83,62,46,29.94,29.83,13,5,13,0.00
2013-6-16,102,89,75,77,72,67,88,61,37,29.95,29.81,12,4,12,0.00
2013-6-17,100,85,71,75,72,66,89,67,42,29.99,29.79,20,5,20,0.00
2013-6-18,90,79,74,76,70,65,88,76,58,29.95,29.81,15,4,15,0.28
2013-6-19,100,83,70,78,72,66,93,72,44,29.92,29.82,26,3,26,1.01
2013-6-20,99,87,76,76,72,67,85,63,41,29.99,29.86,13,5,16,0.00
2013-6-21,99,88,75,76,71,66,84,59,38,30.02,29.89,14,6,14,0.00
2013-6-22,101,88,75,76,71,68,84,60,38,29.98,29.81,14,6,14,0.00
2013-6-23,99,88,76,76,71,65,84,59,36,29.93,29.81,13,6,15,0.00
2013-6-24,100,88,76,75,70,67,82,57,39,29.97,29.82,18,7,18,0.00
2013-6-25,101,89,77,75,70,65,83,56,34,29.93,29.76,19,9,19,0.00
2013-6-26,102,90,76,76,71,66,83,56,39,29.90,29.78,18,8,18,0.00
2013-6-27,105,91,78,76,71,65,77,54,34,29.95,29.80,14,5,14,0.00
2013-6-28,104,89,77,73,68,62,73,52,27,29.88,29.72,14,4,14,0.00
2013-6-29,99,87,73,72,65,59,73,50,27,29.81,29.71,20,4,20,0.00
2013-6-30,92,82,70,66,60,55,79,48,29,29.85,29.73,19,5,19,0.00
2013-7-1,88,78,66,62,58,54,74,53,32,29.94,29.84,18,5,18,0.00
2013-7-2,89,79,66,60,54,47,70,45,25,30.00,29.91,17,4,17,0.00
2013-7-3,96,79,62,64,54,48,70,45,24,29.97,29.84,14,3,14,0.00
2013-7-4,101,84,69,68,62,54,73,49,24,29.93,29.80,18,4,18,0.00
2013-7-5,102,85,68,70,62,55,75,48,26,29.92,29.77,13,4,13,0.00
2013-7-6,101,87,72,72,64,59,71,48,30,29.87,29.76,15,5,15,0.00
2013-7-7,102,88,73,75,68,62,74,53,34,29.91,29.81,14,5,14,0.00
2013-7-8,103,90,76,75,72,67,80,56,38,30.01,29.89,15,5,16,0.00
2013-7-9,104,89,78,74,69,64,82,54,31,30.04,29.89,12,6,12,0.00
2013-7-10,108,94,80,74,70,64,75,49,27,29.98,29.81,12,5,12,0.00
2013-7-11,107,89,79,76,71,66,74,56,30,29.90,29.81,12,4,12,0.00
2013-7-12,106,89,73,76,70,64,89,58,32,29.89,29.78,14,4,14,0.00
2013-7-13,104,92,79,75,68,59,75,46,31,29.91,29.78,17,6,17,0.00
2013-7-14,81,73,69,69,65,58,91,77,47,29.93,29.80,10,3,10,0.27
2013-7-15,77,72,68,72,68,65,93,89,77,30.00,29.86,8,3,10,0.91
2013-7-16,93,78,72,75,71,68,92,81,51,30.11,29.98,14,4,14,0.12
2013-7-17,92,78,71,77,72,68,94,82,52,30.14,30.04,18,4,18,0.32
2013-7-18,96,83,72,78,72,67,94,71,47,30.09,29.91,13,2,13,0.01
2013-7-19,90,80,75,71,70,68,85,71,52,29.95,29.83,9,3,9,0.00
2013-7-20,100,84,73,79,72,68,88,70,44,29.90,29.76,12,3,12,0.01
2013-7-21,101,86,73,78,73,69,89,68,39,29.86,29.76,14,5,14,0.00
2013-7-22,100,89,77,77,74,71,86,63,42,29.90,29.78,14,7,14,0.00
2013-7-23,101,90,79,80,73,64,84,60,32,29.90,29.74,14,7,14,0.00
2013-7-24,100,86,78,76,71,66,83,62,43,29.94,29.77,14,6,14,0.00
2013-7-25,100,86,73,80,73,70,89,67,43,29.96,29.88,12,4,12,0.00
2013-7-26,100,84,77,77,73,70,88,70,44,29.93,29.74,27,5,27,0.77
2013-7-27,89,80,71,73,68,65,88,68,46,29.93,29.81,14,6,17,0.00
2013-7-28,98,86,68,74,71,64,88,62,43,29.90,29.78,8,4,9,0.00
2013-7-29,100,87,76,76,72,65,85,63,36,29.92,29.83,16,6,16,0.00
2013-7-30,102,90,78,76,70,62,82,55,36,30.00,29.86,16,7,16,0.00
2013-7-31,105,91,78,75,70,66,79,54,31,29.99,29.81,13,5,13,0.00
2013-8-3,91,87,84,66,65,65,55,49,42,29.92,29.86,5,3,5,0.00
2013-8-4,105,92,79,76,71,66,76,54,32,29.99,29.84,10,5,10,0.00
2013-8-5,106,94,80,72,68,64,69,45,31,29.93,29.76,11,6,11,0.00
2013-8-6,106,94,80,73,69,63,71,47,31,29.83,29.69,16,7,16,0.00
2013-8-7,108,92,79,75,70,64,78,52,30,29.81,29.66,14,6,14,0.00
2013-8-8,108,94,78,75,69,61,81,48,29,29.80,29.66,13,6,13,0.00
2013-8-9,108,93,77,73,63,54,73,41,19,29.86,29.74,14,5,14,0.00
2013-8-10,103,88,74,74,66,56,72,50,33,29.95,29.83,14,3,14,0.00
2013-8-11,108,94,76,77,72,67,78,52,32,29.99,29.83,10,4,10,0.00
2013-8-12,105,87,78,75,69,66,79,58,33,29.96,29.82,8,4,8,0.00
2013-8-13,104,87,79,77,71,66,81,61,36,29.91,29.80,14,5,14,0.09
2013-8-14,92,81,74,76,73,71,92,78,53,29.91,29.83,19,5,19,0.70
2013-8-15,93,80,71,73,67,63,91,68,45,29.98,29.85,13,4,13,0.00
2013-8-16,89,79,70,68,64,62,78,63,44,29.97,29.86,16,5,16,0.00
2013-8-17,90,79,62,62,60,58,86,55,36,30.00,29.87,18,6,18,0.00
2013-8-18,93,80,64,68,61,57,84,55,33,30.00,29.89,14,4,14,0.00
2013-8-19,102,85,70,69,62,57,77,50,28,29.98,29.83,8,4,8,0.00
2013-8-20,103,86,71,69,62,59,69,47,29,29.96,29.85,13,4,13,0.00
2013-8-21,102,84,74,72,65,59,76,55,33,30.00,29.88,7,3,7,0.00
2013-8-22,104,89,76,75,69,64,75,53,34,30.00,29.83,9,3,9,0.00
2013-8-23,106,91,77,75,68,63,74,50,30,29.94,29.79,9,3,9,0.00
2013-8-24,103,88,77,74,69,65,73,55,30,29.96,29.86,17,4,17,0.00
2013-8-25,101,88,74,71,67,64,78,53,35,30.04,29.94,14,5,14,0.00
2013-8-26,97,86,74,72,68,63,84,58,34,30.07,29.94,19,6,19,0.00
2013-8-27,101,87,73,74,70,66,85,59,33,30.07,29.92,11,4,11,0.02
2013-8-28,104,87,72,74,68,65,79,58,31,30.14,30.01,2,0,2,0.00
2013-8-29,106,94,76,72,66,62,69,43,27,30.10,29.96,10,3,10,0.00
2013-8-30,108,92,76,73,66,62,70,45,24,30.03,29.89,8,3,9,0.00
2013-8-31,111,92,80,74,67,62,74,48,24,29.94,29.81,11,4,11,0.00
2013-9-1,108,93,81,73,68,65,68,47,27,29.92,29.79,9,4,9,0.00
2013-9-2,95,86,78,75,71,67,82,62,46,30.02,29.87,11,3,11,0.02
2013-9-3,101,86,75,72,68,60,85,58,27,30.02,29.89,10,3,10,0.00
2013-9-4,106,91,72,74,67,63,79,49,27,30.06,29.95,16,4,16,0.00
2013-9-5,107,90,76,75,68,62,79,51,29,30.12,30.00,14,4,14,0.00
2013-9-6,104,88,76,74,68,64,75,53,33,30.11,29.96,11,2,11,0.07
2013-9-7,104,88,76,75,68,62,76,54,30,30.06,29.92,13,4,13,0.00
2013-9-8,102,86,70,74,67,62,86,57,29,30.02,29.88,10,3,10,0.00
2013-9-9,101,86,72,73,68,65,82,56,34,30.03,29.92,10,4,13,0.00
2013-9-10,98,85,73,75,67,59,84,59,29,30.11,30.00,14,4,14,0.00
2013-9-11,102,84,71,73,68,64,85,60,35,30.14,30.01,15,4,15,0.00
2013-9-12,104,87,75,73,67,63,76,54,31,30.09,29.93,8,3,8,0.00
2013-9-13,100,87,73,71,68,64,77,54,36,29.99,29.83,17,4,17,0.00
2013-9-14,97,88,76,68,65,62,73,47,36,29.99,29.87,13,7,13,0.00
2013-9-15,100,86,74,73,65,61,65,50,36,30.05,29.95,12,5,12,0.00
2013-9-16,101,91,75,75,67,63,74,48,33,30.10,29.97,12,4,12,0.00
2013-9-17,102,93,78,71,67,63,63,44,33,30.10,29.95,10,4,10,0.00
2013-9-18,103,90,77,74,67,62,71,48,29,30.04,29.89,10,5,12,0.00
2013-9-19,93,81,75,75,71,67,93,71,52,30.02,29.87,18,4,18,0.35
2013-9-20,75,73,71,74,71,67,95,92,86,29.93,29.83,20,7,20,1.62
2013-9-21,84,73,63,67,55,44,88,58,26,29.98,29.86,20,6,20,0.00
2013-9-22,84,69,57,59,53,50,84,59,33,29.96,29.81,14,3,14,0.00
2013-9-23,90,73,59,61,56,51,81,59,33,29.88,29.76,9,3,9,0.00
2013-9-24,93,79,65,70,60,52,84,56,29,29.94,29.84,13,2,13,0.00
2013-9-25,97,78,61,60,53,49,69,45,22,29.92,29.78,8,2,8,0.00
2013-9-26,97,78,67,63,58,52,64,50,30,29.90,29.80,9,4,11,0.00
2013-9-27,93,81,68,74,68,59,78,64,52,29.96,29.86,12,5,12,0.00
2013-9-28,90,78,68,78,72,65,92,83,65,30.04,29.89,22,5,22,0.58
2013-9-29,83,76,65,65,59,55,91,57,41,30.05,29.92,12,3,12,0.03
2013-9-30,89,74,62,66,60,54,82,61,35,29.94,29.82,10,1,10,0.00
2013-10-1,93,79,69,73,69,64,92,72,47,29.96,29.85,9,4,9,0.00
2013-10-2,92,82,73,75,71,69,90,71,53,30.00,29.88,10,5,10,0.00
2013-10-3,94,82,73,75,72,69,90,73,48,29.95,29.83,13,6,13,0.00
2013-10-4,79,79,78,69,68,68,71,70,69,29.87,29.87,10,6,10,0.00
2013-10-5,84,67,54,75,60,44,91,78,59,30.11,29.88,19,6,19,0.02
2013-10-6,74,66,49,52,40,32,90,43,22,30.14,30.03,14,4,14,0.00
2013-10-7,82,67,51,47,40,35,67,41,21,30.16,30.06,13,2,13,0.00
2013-10-8,84,67,50,54,48,41,77,53,28,30.13,30.00,8,2,8,0.00
2013-10-9,86,75,56,62,57,50,81,55,37,30.09,29.99,9,4,9,0.00
2013-10-10,87,76,59,65,61,54,85,62,44,30.07,29.89,11,4,11,0.00
2013-10-11,89,77,67,73,68,62,88,74,57,29.97,29.84,15,5,15,0.00
2013-10-12,90,76,68,77,70,65,90,82,65,30.09,29.89,12,4,12,0.21
2013-10-13,75,72,67,70,68,64,95,87,81,30.21,30.06,10,5,10,0.00
2013-10-14,75,72,69,72,70,67,94,92,88,30.14,29.94,11,4,11,0.71
2013-10-15,78,68,54,73,65,52,95,91,82,30.06,29.91,14,6,14,1.75
2013-10-16,63,57,53,56,53,52,95,88,71,30.09,29.99,13,4,13,0.65
2013-10-17,73,59,48,54,49,45,91,72,44,30.14,29.99,7,1,7,0.00
2013-10-18,74,62,52,57,53,47,92,72,50,30.07,29.91,10,3,10,0.00
2013-10-19,64,54,44,55,42,38,87,65,40,30.22,30.06,16,4,16,0.00
2013-10-20,73,61,42,50,46,36,84,58,37,30.09,29.90,12,5,12,0.00
2013-10-21,75,62,54,65,55,47,90,77,65,30.10,29.91,16,4,16,0.00
2013-10-22,75,59,44,50,44,40,87,62,30,30.17,30.03,10,3,10,0.00
2013-10-23,83,67,51,53,49,42,72,53,30,30.14,30.04,7,2,7,0.00
2013-10-24,82,72,55,58,51,46,69,50,31,30.27,30.08,12,5,12,0.00
2013-10-25,69,60,49,51,49,45,90,67,51,30.40,30.24,13,6,13,0.00
2013-10-26,80,70,56,65,60,49,93,71,59,30.24,30.03,24,6,24,1.55
2013-10-27,71,64,59,62,59,57,94,85,66,30.14,30.02,8,1,8,0.00
2013-10-28,82,69,60,70,63,56,94,82,65,30.11,30.00,10,4,10,0.01
2013-10-29,78,73,68,71,68,65,91,85,77,30.09,30.00,11,5,11,0.00
2013-10-30,72,69,66,68,66,63,94,91,86,30.04,29.81,19,8,19,0.63
2013-10-31,77,69,57,69,59,43,95,74,32,29.89,29.70,26,8,26,0.04
2013-11-1,78,63,49,57,50,44,86,65,46,30.07,29.81,13,3,13,0.00
2013-11-2,67,57,48,45,40,34,78,55,32,30.28,30.07,16,3,16,0.00
2013-11-3,71,56,44,48,42,36,77,61,41,30.22,29.99,13,4,13,0.00
2013-11-4,61,58,53,60,54,47,95,86,68,30.11,30.00,12,5,12,0.58
2013-11-5,70,67,61,67,65,60,95,92,88,30.05,29.92,11,5,11,0.26
2013-11-6,70,57,45,68,52,40,94,83,62,30.35,29.96,17,4,17,0.20
2013-11-7,62,50,39,45,39,36,90,68,40,30.49,30.35,11,2,11,0.00
2013-11-8,69,55,43,50,44,38,83,67,43,30.39,30.13,10,2,10,0.00
2013-11-9,71,60,55,55,50,46,78,68,55,30.22,30.12,11,4,11,0.00
2013-11-10,69,58,52,54,48,43,83,72,44,30.34,30.21,6,1,6,0.00
2013-11-11,74,59,46,57,50,42,88,72,52,30.29,30.16,5,1,5,0.00
2013-11-12,59,50,36,55,36,22,88,63,37,30.67,30.27,23,7,23,0.00
2013-11-13,52,39,28,30,26,21,80,60,39,30.67,30.37,9,2,9,0.00
2013-11-14,62,52,35,47,37,26,77,58,32,30.37,30.03,12,5,12,0.00
2013-11-15,72,61,54,59,54,46,86,76,63,30.03,29.84,11,5,11,0.00
2013-11-16,76,69,62,69,64,58,92,85,71,29.88,29.70,19,8,19,0.00
2013-11-17,87,76,62,71,61,45,89,63,28,30.00,29.71,16,7,16,0.00
2013-11-18,74,62,52,45,39,32,61,44,26,30.17,30.00,16,6,16,0.00
2013-11-19,71,60,53,43,39,34,58,47,28,30.18,30.02,12,5,12,0.00
2013-11-20,68,57,44,55,44,34,75,63,49,30.04,29.90,12,4,12,0.00
2013-11-21,76,66,47,70,62,44,92,86,73,30.17,29.95,29,5,29,0.64
2013-11-22,47,39,36,44,37,34,94,92,89,30.41,30.17,21,8,23,0.38
2013-11-23,42,38,36,38,35,30,94,88,74,30.51,30.39,17,7,17,0.10
2013-11-24,37,35,34,30,27,24,80,73,62,30.55,30.33,19,8,19,0.03
2013-11-25,38,36,33,35,33,29,94,89,80,30.34,30.12,12,4,12,0.41
2013-11-26,51,42,36,36,33,29,92,71,48,30.32,30.10,16,6,16,0.00
2013-11-27,46,38,30,28,21,18,74,51,35,30.46,30.33,12,3,14,0.00
2013-11-28,55,39,29,34,27,20,76,62,43,30.44,30.33,9,3,9,0.00
2013-11-29,60,49,30,44,37,24,83,64,42,30.51,30.34,7,3,7,0.00
2013-11-30,67,57,42,54,47,34,86,71,55,30.35,30.16,17,6,17,0.00
2013-12-1,72,62,53,60,55,49,91,80,64,30.17,29.89,14,6,14,0.00
2013-12-2,70,57,44,57,49,42,93,77,47,29.89,29.66,9,2,9,0.00
2013-12-3,76,59,39,51,45,36,93,65,33,29.67,29.52,11,4,11,0.00
2013-12-4,78,64,54,64,56,44,90,75,62,29.85,29.60,16,5,16,0.00
2013-12-5,54,37,30,44,29,24,91,74,60,30.14,29.84,17,8,17,0.00
2013-12-6,33,28,25,30,25,20,93,87,81,30.47,30.07,11,0,11,0.00
2013-12-7,27,25,22,25,22,18,93,88,82,30.50,30.26,10,2,10,0.00
2013-12-8,38,33,27,35,30,25,93,91,87,30.26,30.03,5,1,5,0.35
2013-12-9,36,33,31,34,29,24,92,86,74,30.38,30.12,16,7,16,0.10
2013-12-10,40,31,22,28,22,16,85,71,57,30.51,30.34,11,2,11,0.16
2013-12-11,50,36,26,36,28,21,85,73,52,30.56,30.30,13,3,13,0.24
2013-12-12,50,39,28,36,30,24,87,73,53,30.59,30.30,8,1,8,0.00
2013-12-13,46,43,41,45,38,32,93,82,70,30.31,29.81,14,4,14,0.10
2013-12-14,46,41,32,45,36,26,93,82,69,30.31,29.78,17,5,17,0.00
2013-12-15,59,45,30,41,34,26,85,67,43,30.35,30.22,8,3,8,0.00
2013-12-16,65,50,38,42,37,32,80,62,39,30.25,30.14,12,6,12,0.00
2013-12-17,70,53,39,46,39,32,78,61,40,30.28,30.19,9,3,9,0.00
2013-12-18,69,56,39,48,45,35,85,66,43,30.24,30.00,15,6,15,0.00
2013-12-19,74,62,51,62,56,48,89,80,63,30.00,29.75,20,10,20,0.00
2013-12-20,72,60,36,65,55,34,92,85,67,29.85,29.73,17,6,17,0.01
2013-12-21,56,45,35,54,42,33,95,90,82,29.77,29.53,19,4,19,1.28
2013-12-22,47,38,32,42,31,25,85,75,64,30.36,29.75,16,5,16,0.01
2013-12-23,46,35,25,34,27,20,81,72,53,30.53,30.34,11,3,11,0.00
2013-12-24,53,38,24,38,29,19,81,71,53,30.52,30.25,11,4,11,0.00
2013-12-25,59,45,34,47,36,27,78,71,61,30.39,30.25,11,3,11,0.00
2013-12-26,53,41,31,41,33,25,81,74,60,30.42,30.31,7,1,7,0.00
2013-12-27,60,45,32,45,36,27,80,71,54,30.43,30.30,9,1,9,0.00
2013-12-28,62,48,36,44,38,30,79,67,48,30.30,29.96,9,3,9,0.00
2013-12-29,55,42,33,47,34,26,81,75,65,30.27,29.93,13,4,13,0.00
2013-12-30,43,35,29,26,23,21,78,62,46,30.38,30.22,10,3,10,0.00
2013-12-31,55,40,28,34,28,21,77,62,41,30.43,30.20,11,3,11,0.00
2014-1-1,66,49,34,51,39,28,80,68,46,30.20,29.88,22,8,22,0.00
2014-1-2,42,34,27,29,21,18,76,60,43,30.46,30.16,15,5,15,0.00